Starlink 34476

operational
NORAD ID: 64364 Int'l Des: 2025-126 Owner: SPXS Country: US Constellation: starlink
LEOCIRCULAR

Über Starlink 34476

Beschreibung wird geladen...

Live-Position

3D-Globus wird geladen...

Nächste Überflüge

Höhenverlauf

Altitude vs Time

uPlot chart will show altitude changes over time

Zweizeiliger Elementsatz

1 64364U 25126W 25340.83113765 .00009635 00000-0 81395-3 0 9999
2 64364 70.0020 268.5382 0002444 267.7168 92.3712 14.98340183 26776
Epoch: 6. Dez. 2025 • Age: 27 hours

Aktueller Status

Höhe 595.8 km
Geschwindigkeit 7.56 km/s
Subsatellitenpunkt -69.94°S, 109.53°E
Startdatum 13. Juni 2025
Alter 0.4 years
Typ internet

Technische Details

Klassifizierung Payload
Masse 575.00 kg
Trockenmasse 530.00 kg
Gesamtmasse 575.00 kg
Länge 0.30 m
Durchmesser 4.10 m
Spannweite 29.00 m
Form Box + pan
Hersteller SPXS
Bus-Typ Starlink V2MO
Phasenstatus In Orbit
Besitzer/Staat SPXS/US

Große Konstellationen

Loading constellations...